Strait of Georgia - south of Nanaimo: Past 24 Hour Conditions

 

Halibut Bank - 46146

07:00 AM PDT 31 October 2014Buoy position: 49.34N 123.72W
This table is a summary of hourly weather conditions for the past 24 hours.
Date / Time
(PDT)
Wind(knots) Wave height(m) Wave period(s) Pressure(kPa) Air tempC) Water tempC)
31 October 2014
7:00 WSW 4 gust 6 0.1 2.0 100.7 11 11
6:00 SE 4 gust 4 0.1 2.0 100.7 11 11
5:00 ESE 8 gust 8 0.1 2.0 100.7 11 11
4:00 ESE 10 gust 12 0.2 2.0 100.7 11 11
3:00 ESE 10 gust 12 0.1 2.0 100.7 11 11
2:00 ESE 10 gust 14 0.1 2.0 100.7 12 11
1:00 ESE 10 gust 10 0.1 2.0 100.8 12 11
0:00 E 6 gust 8 0.1 3.0 100.7 12 11
30 October 2014
23:00 E 4 gust 8 0.1 4.0 100.8 12 11
22:00 S 4 gust 6 0.1 3.0 100.7 12 11
21:00 SE 4 gust 6 0.2 3.0 100.6 12 11
20:00 SE 4 gust 6 0.3 3.0 100.6 12 11
19:00 SSE 6 gust 8 0.3 3.0 100.6 12 11
18:00 SSE 12 gust 16 0.3 3.0 100.5 12 11
17:00 SE 12 gust 12 0.2 2.0 100.5 12 11
16:00 SE 12 gust 16 0.2 2.0 100.5 12 11
15:00 ESE 12 gust 14 0.2 2.0 100.6 12 11
14:00 SE 10 gust 12 0.3 2.0 100.7 11 11
13:00 ESE 12 gust 16 0.4 2.0 100.8 11 11
12:00 ESE 12 gust 14 0.3 2.0 100.9 11 11
11:00 SSE 12 gust 14 0.4 3.0 101.0 11 11
10:00 S 16 gust 19 0.3 2.0 100.9 11 11
9:00 S 16 gust 18 0.2 2.0 100.9 11 11
8:00 SSE 12 gust 14 0.3 2.0 101.0 11 11
7:00 S 14 gust 16 0.3 2.0 101.1 11 11
 
Map of Pacific - Georgia Basin marine weather areas Tsawwassen Ferry Terminal Sentry Shoal - 46131 Halibut Bank - 46146 La Perouse Bank - 46206 Discovery Island Esquimalt Harbour Kelp Reefs Malahat Race Rocks Lightstation Saturna Island Sheringham Point University of Victoria Victoria Gonzales Victoria Int'l Airport Ballenas Islands Campbell River Airport Comox Airport Entrance Island Fanny Island Nanaimo Airport Sisters Islets Estevan Point Tofino Airport Grief Point Powell River Airport Sechelt Point Atkinson Sand Heads Lightstation Vancouver Harbour Vancouver Int'l Airport West Vancouver Port Alberni Howe Sound - Pam Rocks Squamish Airport